Flag for Rwanda Weather past 2 weeks in Kigali, Rwanda

Now
68 °F

Passing clouds.


Feels Like: 68 °F
Forecast: 65 / 76 °F
Wind: No wind

Location: Kigali Airport

Current Time: Mar 30, 2015 at 6:59:45 PM

Latest Report: Mar 30, 2015 at 6:30 PM


Visibility: N/A

Pressure: 30.07 "Hg

Humidity: 88%

Dew point: 64 °F

Location of KigaliLocation

Historic Weather in Kigali — Graph

°F

Kigali temperature yesterday

Maximum temperature yesterday: 70 °F (at 10:30 AM)
Minimum temperature yesterday: 63 °F (at 11:30 AM)
Average temperature yesterday: 66 °F

Past Weeks' High & Low Weather Summary

 TemperatureHumidityPressure
High90 °F (Mar 16, 2:30 PM)100% (Mar 20, 4:00 AM)30.21 "Hg (Mar 20, 4:00 AM)
Low59 °F (Mar 16, 6:30 AM)22% (Mar 16, 4:00 PM)29.95 "Hg (Mar 18, 3:30 PM)
Average71 °F79%30.08 "Hg
* Reported Mar 15 6:00 PM — Mar 30 6:00 PM, Kigali, Weather by CustomWeather, © 2015

Note: Actual official high and low records may vary slightly from our data, if they occured in-between our weather recording intervals... More about our weather records

Advertising

Kigali weather history for previous 24 hours

 ConditionsComfort  
Time TempWeatherWind HumidityBarometerVisibility
6:00 PM
Mon, Mar 30
70 °FScattered clouds.5 mph83%30.07 "HgN/A
5:30 PM70 °FPartly sunny.7 mph83%30.07 "HgN/A
5:00 PM72 °FThunderstorms. Partly sunny.7 mph78%30.07 "Hg5 mi
4:30 PM73 °FThunderstorms. Partly sunny.7 mph78%30.07 "Hg5 mi
4:00 PM77 °FPartly sunny.7 mph69%30.04 "HgN/A
3:30 PM77 °FPartly sunny.7 mph69%30.04 "HgN/A
3:00 PM81 °FPartly sunny.7 mph54%30.07 "HgN/A
2:00 PM79 °FPartly sunny.7 mph61%30.09 "HgN/A
1:30 PM79 °FScattered clouds.5 mph61%30.09 "HgN/A
1:00 PM77 °FScattered clouds.5 mph65%30.12 "HgN/A
12:30 PM73 °FBroken clouds.5 mph78%30.15 "HgN/A
12:00 PM72 °FBroken clouds.6 mph83%30.18 "HgN/A
11:30 AM72 °FBroken clouds.5 mph83%30.18 "HgN/A
11:00 AM72 °FBroken clouds.6 mph83%30.21 "HgN/A
10:30 AM72 °FPartly sunny.3 mph83%30.21 "HgN/A
10:00 AM72 °FBroken clouds.3 mph83%30.21 "HgN/A
9:30 AM70 °FPartly sunny.No wind88%30.21 "HgN/A
9:00 AM68 °FScattered clouds.No wind94%30.18 "HgN/A
8:30 AM68 °FScattered clouds.No wind94%30.18 "HgN/A
8:00 AM66 °FBroken clouds.No wind100%30.18 "HgN/A
7:00 AM64 °FScattered clouds.No wind100%30.15 "HgN/A
6:30 AM64 °FBroken clouds.No wind100%30.15 "HgN/A
6:00 AM64 °FPartly cloudy.No wind100%30.15 "HgN/A
5:30 AM64 °FPassing clouds.No wind100%30.12 "HgN/A
5:00 AM64 °FPassing clouds.No wind100%30.12 "HgN/A
4:30 AM64 °FPartly cloudy.No wind100%30.12 "HgN/A
4:00 AM64 °FPartly cloudy.3 mph100%30.12 "HgN/A
3:30 AM64 °FPartly cloudy.3 mph100%30.12 "HgN/A
3:00 AM64 °FPartly cloudy.5 mph100%30.12 "HgN/A
2:30 AM64 °FPartly cloudy.7 mph100%30.12 "HgN/A
2:00 AM64 °FPartly cloudy.3 mph100%30.12 "HgN/A
1:30 AM64 °FPartly cloudy.3 mph100%30.12 "Hg5 mi
1:00 AM64 °FPartly cloudy.5 mph100%30.15 "Hg5 mi
12:30 AM64 °FLight rain. Partly cloudy.3 mph100%30.15 "Hg5 mi
12:00 AM66 °FPartly cloudy.No wind100%30.18 "HgN/A
10:30 PM
Sun, Mar 29
66 °FPassing clouds.3 mph100%30.18 "HgN/A
10:00 PM66 °FPassing clouds.No wind100%30.18 "HgN/A
9:30 PM66 °FPassing clouds.No wind100%30.18 "HgN/A
9:00 PM66 °FPassing clouds.No wind100%30.18 "HgN/A
8:30 PM66 °FPassing clouds.3 mph100%30.15 "HgN/A
8:00 PM66 °FPassing clouds.5 mph100%30.15 "HgN/A
7:30 PM66 °FPassing clouds.3 mph100%30.12 "HgN/A
7:00 PM66 °FPassing clouds.3 mph100%30.12 "HgN/A
6:30 PM66 °FPartly cloudy.3 mphN/A30.12 "HgN/A
6:00 PM68 °FScattered clouds.5 mph94%30.12 "HgN/A
Weather by CustomWeather, © 2015

See weather overviewHow to use our weather pages